[[{"header":{"parameterUnit":"m.s-1","parameterCategory":1,"la1":30.2991,"la2":30.254,"lo1":-89.0895,"lo2":-89.0444,"dy":0.0017,"dx":0.0017,"nx":28,"ny":28,"refTime":"2025-12-17T09:00:00:Z","depth":0,"parameterNumber":2,"parameterNumberName":"U-component_of_WINDS"},"data":[0,0,0,0,0,0,0,0,0,0,0,0,0,0,0,0,0,0,0,0,0,0,0,0,0,0,0,0,0,0,0,0,0,0,0,0,0,0,0,0,0,0,0,0,0,0,0,0,0,0,0,0,0,0,0,0,0,0,-3.0054,-3.0055,0,-3.0101,-3.0102,-3.0102,-2.9988,-2.9984,-2.9981,-2.9977,-3.0028,-3.0033,-3.0038,0,0,0,0,0,0,0,0,0,0,0,0,0,-2.9869,-2.9873,-3.0054,-3.0055,-3.0055,-3.0101,-3.0102,-3.0102,-2.9989,-2.9984,-2.998,-2.9976,-3.0027,-3.0032,-3.0038,0,0,0,0,0,0,0,0,0,0,0,0,0,-2.9936,-2.9874,-3.0054,-3.0004,-3.0,-3.0101,-3.0102,-3.0102,-2.999,-2.9984,-2.9979,-2.9974,-3.0025,-3.0032,-3.0039,-3.0191,0,0,-3.0061,-3.0064,0,0,0,0,0,0,0,0,-2.9932,-2.9943,-3.0011,-3.0008,-3.0003,-3.0033,-3.0055,-3.0132,-2.9991,-2.9994,-2.9977,-2.9971,-3.0035,-3.0041,-3.0061,-3.0194,-3.0196,-3.0061,-3.0066,-3.0069,-3.0071,0,0,0,0,0,0,0,-2.9928,-2.994,-3.0073,-3.0012,-3.0007,-2.998,-2.9984,-3.0069,-3.0044,-2.9993,-2.9985,-2.9992,-3.0032,-3.0055,-3.0062,-3.0197,-3.0061,-3.0067,-3.0072,-3.0074,-3.0458,-3.0463,0,0,0,0,0,0,-2.9929,-2.9937,-3.0071,-3.0074,-2.9954,-2.9988,-2.9992,-3.0029,-3.0043,-3.004,-2.9996,-2.9986,-3.0045,-3.0054,-3.0063,-3.0244,-3.0069,-3.0075,-3.0079,-3.0452,-3.0459,-3.0465,0,0,0,0,0,0,-2.9926,-2.9942,-3.0069,-3.0003,-3.0017,-2.9997,-3.004,-3.0033,-3.0056,-3.0045,-3.0041,-3.0025,-3.0041,-3.0053,-3.016,-3.0244,-3.0078,-3.0085,-3.0445,-3.0454,-3.0462,-3.0606,0,0,0,0,0,0,-2.9921,-2.9942,-2.9999,-3.0005,-3.0021,-3.0166,-3.0045,-3.0038,-3.0068,-3.0055,-3.0071,-3.0068,-3.0038,-3.015,-3.0167,-3.0251,-3.009,-3.0437,-3.0449,-3.0459,-3.0594,-3.0618,-3.064,0,0,0,0,0,-2.9914,-3.0038,-3.0002,-3.0019,-3.0092,-3.0171,-3.018,-3.0142,-3.0075,-3.0133,-3.0126,-3.0067,-3.0231,-3.0162,-3.0181,-3.0267,-3.0432,-3.0445,-3.0458,-3.0583,-3.0614,-3.0639,0,0,0,0,0,0,-3.0042,-3.0038,-2.9998,-3.0127,-3.015,-3.0151,-3.0223,-3.0175,-3.0218,-3.0205,-3.0157,-3.0161,-3.0278,-3.0283,-3.0206,-3.0416,-3.032,-3.0338,-3.0409,-3.0438,-3.0461,-3.0458,-3.0096,0,0,0,0,0,-3.0085,-3.0148,-3.0141,-3.0255,-3.0269,-3.0244,-3.0277,-3.0246,-3.0268,-3.0277,-3.0278,-3.0303,-3.036,-3.0399,-3.045,-3.0593,-3.0595,-3.0661,-3.0684,-3.0703,-3.072,-3.0797,-3.0827,-3.0509,-3.0509,-3.0509,0,0,-3.0175,-3.018,-3.0223,-3.0281,-3.0295,-3.0363,-3.0253,-3.0329,-3.0379,-3.0289,-3.0391,-3.0392,-3.0416,-3.0543,-3.0598,-3.055,-3.0808,-3.072,-3.0736,-3.0742,-3.0814,-3.0844,-3.0871,-3.0518,-3.0516,-3.0515,0,0,-3.0373,-3.0383,-3.048,-3.0496,-3.0519,-3.0501,-3.0525,-3.0533,-3.0531,-3.0632,-3.0566,-3.0625,-3.0724,-3.0744,-3.0768,-3.0974,-3.0922,-3.0992,-3.1114,-3.119,-3.1215,-3.1237,-3.1313,-3.1341,-3.1008,-3.1009,-3.1009,0,-3.0483,-3.0581,-3.0536,-3.0617,-3.0645,-3.0565,-3.0664,-3.0682,-3.0721,-3.0743,-3.0688,-3.0811,-3.0822,-3.0952,-3.1003,-3.1023,-3.105,-3.0991,-3.1215,-3.1237,-3.1257,-3.1328,-3.1357,-3.1017,-3.1016,-3.1015,-3.1014,0,-3.0715,-3.0784,-3.086,-3.0899,-3.0936,-3.1025,-3.0995,-3.1037,-3.1003,-3.0992,-3.1096,-3.1106,-3.1159,-3.1187,-3.1154,-3.1314,-3.1283,-3.1223,-3.1126,-3.1296,-3.1363,-3.139,-3.1029,-3.1026,-3.1024,-3.1022,0,0,-3.0997,-3.101,-3.1039,-3.1056,-3.1075,-3.1128,-3.1214,-3.1265,-3.1303,-3.1332,-3.1405,-3.149,-3.1434,-3.1461,-3.1429,-3.1496,-3.1661,-3.1427,-3.1427,-3.1472,-3.184,-3.1887,-3.192,-3.1626,-3.1631,-3.1635,-3.1838,0,-3.1195,-3.1343,-3.1305,-3.1452,-3.1517,-3.1441,-3.1517,-3.1537,-3.1529,-3.1583,-3.1574,-3.1636,-3.1556,-3.1572,-3.1634,-3.1628,-3.1735,-3.1612,-3.1695,-3.1698,-3.1694,-3.1954,-3.2005,-3.2196,-3.1864,-3.1868,-3.1871,0,-3.1446,-3.1485,-3.1639,-3.1648,-3.1673,-3.1742,-3.1786,-3.1838,-3.186,-3.1849,-3.1879,-3.1835,-3.1921,-3.1822,-3.1941,-3.1859,-3.189,-3.1892,-3.1898,-3.1907,-3.1797,-3.1972,-3.2256,-3.2286,-3.1912,-3.1908,-3.1906,0,-3.164,-3.173,-3.1834,-3.1851,-3.1863,-3.1913,-3.1921,-3.1937,-3.197,-3.2009,-3.2031,-3.2079,-3.2106,-3.2145,-3.2116,-3.2046,-3.2241,-3.2138,-3.2236,-3.2237,-3.2283,-3.2281,-3.2579,-3.2299,-3.2298,-3.2298,-3.2297,0,-3.1866,-3.1964,-3.1921,-3.1986,-3.2093,-3.2048,-3.2156,-3.2155,-3.217,-3.2234,-3.2171,-3.2232,-3.2188,-3.2246,-3.2223,-3.2326,-3.2338,-3.2334,-3.2327,-3.2341,-3.2342,-3.2363,-3.235,-3.2305,-3.2304,-3.2302,-3.2301,0,-3.2102,-3.2076,-3.2185,-3.2188,-3.2191,-3.227,-3.2273,-3.2333,-3.2319,-3.2401,-3.2418,-3.2397,-3.2462,-3.2435,-3.2504,-3.2489,-3.2622,-3.2596,-3.2615,-3.2609,-3.2709,-3.2701,-3.3033,-3.3075,-3.2766,-3.2769,-3.2771,0,-3.2249,-3.2323,-3.2333,-3.2371,-3.2383,-3.2444,-3.2478,-3.2437,-3.2475,-3.2505,-3.2562,-3.2621,-3.2667,-3.2774,-3.2766,-3.2818,-3.2795,-3.2908,-3.2803,-3.2815,-3.28,-3.2797,-3.2805,-3.293,-3.2933,-3.2936,-3.2939,0,-3.2515,-3.2499,-3.2549,-3.2596,-3.2638,-3.2673,-3.2703,-3.2738,-3.2698,-3.2743,-3.2809,-3.2844,-3.2913,-3.2974,-3.302,-3.3029,-3.2979,-3.2971,-3.2997,-3.3014,-3.3023,-3.3022,-3.2675,-3.2965,-3.2962,-3.296,-3.2959,-3.2958,-3.2712,-3.2775,-3.2792,-3.2851,-3.2869,-3.2898,-3.2955,-3.2949,-3.3002,-3.3055,-3.3027,-3.3104,-3.3124,-3.3181,-3.3197,-3.3257,-3.3213,-3.325,-3.3259,-3.327,-3.3284,-3.3011,-3.3265,-3.3264,-3.3263,-3.3262,-3.3262,0,-3.2977,-3.2984,-3.3038,-3.3082,-3.3129,-3.3075,-3.3105,-3.3148,-3.3216,-3.3238,-3.3284,-3.336,-3.3418,-3.3414,-3.3468,-3.3517,-3.3495,-3.3533,-3.353,-3.3534,-3.3319,-3.3293,-3.3549,-3.3549,-3.3549,-3.3549,-3.3549,-3.3549,-3.312,-3.3223,-3.321,-3.3321,-3.3327,-3.3402,-3.3424,-3.3451,-3.3469,-3.3556,-3.3604,-3.36,-3.3613,-3.3667,-3.3718,-3.3716,-3.374,-3.3787,-3.3776,-3.3577,-3.3548,-3.3521,-3.3496,-3.3792,-3.3792,-3.3985,-3.3987,-3.3989]},{"header":{"parameterUnit":"m.s-1","parameterCategory":1,"la1":30.2991,"la2":30.254,"lo1":-89.0895,"lo2":-89.0444,"dy":0.0017,"dx":0.0017,"nx":28,"ny":28,"refTime":"2025-12-17T09:00:00:Z","depth":0,"parameterNumber":3,"parameterNumberName":"V-component_of_WINDS"},"data":[0,0,0,0,0,0,0,0,0,0,0,0,0,0,0,0,0,0,0,0,0,0,0,0,0,0,0,0,0,0,0,0,0,0,0,0,0,0,0,0,0,0,0,0,0,0,0,0,0,0,0,0,0,0,0,0,0,0,-3.2567,-3.2567,0,-3.2561,-3.2561,-3.2561,-3.2507,-3.2505,-3.2504,-3.2503,-3.2497,-3.2498,-3.2499,0,0,0,0,0,0,0,0,0,0,0,0,0,-3.253,-3.2531,-3.2567,-3.2567,-3.2567,-3.2561,-3.2561,-3.2561,-3.2507,-3.2505,-3.2504,-3.2502,-3.2497,-3.2498,-3.2499,0,0,0,0,0,0,0,0,0,0,0,0,0,-3.2538,-3.2531,-3.2567,-3.2539,-3.2537,-3.2561,-3.2561,-3.2561,-3.2507,-3.2505,-3.2503,-3.2501,-3.2496,-3.2498,-3.2499,-3.255,0,0,-3.2504,-3.2505,0,0,0,0,0,0,0,0,-3.2537,-3.2539,-3.2543,-3.2541,-3.2538,-3.2533,-3.2546,-3.2557,-3.2508,-3.2518,-3.2503,-3.25,-3.251,-3.2511,-3.2514,-3.255,-3.255,-3.2505,-3.2506,-3.2506,-3.2507,0,0,0,0,0,0,0,-3.2537,-3.2539,-3.2565,-3.2543,-3.254,-3.2527,-3.2525,-3.2548,-3.2526,-3.2517,-3.2513,-3.2513,-3.2509,-3.2513,-3.2514,-3.255,-3.2504,-3.2506,-3.2507,-3.2508,-3.2625,-3.2627,0,0,0,0,0,0,-3.254,-3.2539,-3.2565,-3.2564,-3.2533,-3.2529,-3.2528,-3.2536,-3.2525,-3.2522,-3.2515,-3.2511,-3.2511,-3.2512,-3.2513,-3.2571,-3.2506,-3.2508,-3.2509,-3.2623,-3.2625,-3.2627,0,0,0,0,0,0,-3.254,-3.2543,-3.2565,-3.2551,-3.2552,-3.2532,-3.2542,-3.2537,-3.2541,-3.2524,-3.252,-3.2523,-3.2509,-3.2511,-3.2541,-3.257,-3.2509,-3.251,-3.262,-3.2623,-3.2626,-3.2687,0,0,0,0,0,0,-3.2539,-3.2543,-3.2563,-3.2551,-3.2553,-3.2594,-3.2544,-3.2539,-3.2544,-3.2539,-3.253,-3.2527,-3.2508,-3.2539,-3.2543,-3.2571,-3.2511,-3.2617,-3.2622,-3.2625,-3.2682,-3.2692,-3.27,0,0,0,0,0,-3.2538,-3.258,-3.2564,-3.2567,-3.2577,-3.2595,-3.2596,-3.2573,-3.2547,-3.2566,-3.2554,-3.2527,-3.2566,-3.2542,-3.2546,-3.2575,-3.2616,-3.262,-3.2625,-3.2678,-3.269,-3.27,0,0,0,0,0,0,-3.2596,-3.2578,-3.256,-3.26,-3.26,-3.2586,-3.261,-3.2587,-3.2593,-3.2588,-3.2559,-3.2557,-3.2592,-3.2587,-3.256,-3.2623,-3.2586,-3.2592,-3.2625,-3.2636,-3.2645,-3.2645,-3.2513,0,0,0,0,0,-3.2614,-3.263,-3.2614,-3.2651,-3.2651,-3.2631,-3.2638,-3.262,-3.2618,-3.2617,-3.2608,-3.2607,-3.2619,-3.2627,-3.2637,-3.2681,-3.2678,-3.2703,-3.2712,-3.2719,-3.2725,-3.2746,-3.2757,-3.2643,-3.2643,-3.2643,0,0,-3.265,-3.2642,-3.2655,-3.2662,-3.266,-3.2676,-3.2631,-3.2651,-3.2663,-3.262,-3.2648,-3.2641,-3.2638,-3.2675,-3.2691,-3.2672,-3.2755,-3.2725,-3.2731,-3.2733,-3.2752,-3.2763,-3.2772,-3.2646,-3.2646,-3.2645,0,0,-3.2725,-3.2722,-3.2751,-3.2749,-3.2745,-3.2731,-3.2738,-3.2728,-3.2721,-3.2748,-3.2716,-3.273,-3.2751,-3.275,-3.2752,-3.2825,-3.28,-3.2829,-3.2875,-3.2896,-3.2905,-3.2913,-3.2938,-3.2947,-3.2834,-3.2835,-3.2835,0,-3.2771,-3.2795,-3.277,-3.2791,-3.2795,-3.2757,-3.2786,-3.2785,-3.2785,-3.2788,-3.2767,-3.2792,-3.2787,-3.2823,-3.284,-3.2844,-3.285,-3.283,-3.2906,-3.2914,-3.292,-3.2944,-3.2953,-3.2838,-3.2838,-3.2837,-3.2837,0,-3.2851,-3.2869,-3.2893,-3.2893,-3.2899,-3.2925,-3.2903,-3.2912,-3.2894,-3.2881,-3.2909,-3.2902,-3.2909,-3.2916,-3.2898,-3.2948,-3.2936,-3.2911,-3.2873,-3.2935,-3.2957,-3.2965,-3.2843,-3.2842,-3.2841,-3.284,0,0,-3.2964,-3.2948,-3.2957,-3.2956,-3.2948,-3.2961,-3.2984,-3.2991,-3.2999,-3.3,-3.3018,-3.3037,-3.3012,-3.3015,-3.2997,-3.3015,-3.3072,-3.2987,-3.2987,-3.3003,-3.3125,-3.3144,-3.3155,-3.3055,-3.3057,-3.3058,-3.3125,0,-3.3035,-3.3074,-3.3051,-3.3093,-3.3107,-3.307,-3.309,-3.3088,-3.3077,-3.3087,-3.3075,-3.3088,-3.3056,-3.3057,-3.3074,-3.3062,-3.3096,-3.3056,-3.3071,-3.3072,-3.3073,-3.3166,-3.3186,-3.325,-3.3134,-3.3135,-3.3136,0,-3.3124,-3.3127,-3.3171,-3.3159,-3.3164,-3.3183,-3.3186,-3.3197,-3.3192,-3.3183,-3.3185,-3.3161,-3.3182,-3.3145,-3.3174,-3.3147,-3.3152,-3.3147,-3.3149,-3.3149,-3.3107,-3.3168,-3.327,-3.3279,-3.3149,-3.3148,-3.3147,0,-3.32,-3.3216,-3.3243,-3.3244,-3.3231,-3.3244,-3.3239,-3.3233,-3.3238,-3.324,-3.3243,-3.3249,-3.3252,-3.3256,-3.3234,-3.321,-3.3265,-3.3227,-3.3257,-3.3258,-3.3271,-3.327,-3.3374,-3.3275,-3.3275,-3.3275,-3.3275,0,-3.3282,-3.331,-3.3277,-3.3294,-3.3324,-3.3296,-3.3326,-3.3318,-3.3312,-3.3326,-3.3294,-3.3308,-3.3279,-3.329,-3.3273,-3.3298,-3.33,-3.3293,-3.3288,-3.3295,-3.3296,-3.3297,-3.3292,-3.3277,-3.3277,-3.3276,-3.3276,0,-3.3372,-3.3352,-3.3379,-3.3364,-3.336,-3.3383,-3.3369,-3.3384,-3.337,-3.3389,-3.3391,-3.337,-3.3381,-3.3359,-3.3368,-3.3356,-3.3392,-3.338,-3.3393,-3.339,-3.3421,-3.3418,-3.3529,-3.3541,-3.3436,-3.3437,-3.3438,0,-3.3426,-3.3446,-3.3432,-3.3439,-3.3435,-3.3447,-3.3452,-3.3425,-3.3431,-3.3426,-3.3441,-3.3449,-3.3454,-3.3473,-3.3458,-3.3464,-3.3452,-3.3491,-3.3453,-3.3459,-3.3452,-3.345,-3.3452,-3.3498,-3.35,-3.3501,-3.3501,0,-3.3522,-3.351,-3.3518,-3.3521,-3.3527,-3.3529,-3.3528,-3.3536,-3.3507,-3.3515,-3.3525,-3.3529,-3.3537,-3.3545,-3.3547,-3.3542,-3.3517,-3.3513,-3.3521,-3.3528,-3.3534,-3.353,-3.3413,-3.3511,-3.351,-3.3509,-3.3509,-3.3508,-3.3595,-3.361,-3.3602,-3.3611,-3.3608,-3.3607,-3.362,-3.3607,-3.3615,-3.3619,-3.3603,-3.3616,-3.361,-3.361,-3.3607,-3.3617,-3.36,-3.3611,-3.3613,-3.3616,-3.3621,-3.3533,-3.3617,-3.3617,-3.3617,-3.3617,-3.3616,0,-3.3688,-3.3681,-3.3689,-3.3689,-3.3695,-3.3671,-3.3668,-3.3676,-3.3688,-3.3684,-3.3689,-3.37,-3.3707,-3.3692,-3.3697,-3.3708,-3.3697,-3.371,-3.3709,-3.3708,-3.3636,-3.3629,-3.3719,-3.3719,-3.3719,-3.3719,-3.3719,-3.3719,-3.3738,-3.3762,-3.375,-3.3772,-3.3764,-3.3777,-3.3777,-3.3777,-3.3773,-3.3786,-3.3792,-3.3782,-3.3773,-3.3777,-3.3782,-3.3778,-3.3781,-3.3798,-3.3789,-3.3723,-3.3713,-3.3703,-3.3696,-3.3799,-3.3799,-3.386,-3.386,-3.3861]}]]